Location: Young's Pond
(41.2695°N, 72.7766°W)
Time: 13:29:38
(UTC-04:00)

Daily predictions for brighter satellites

Satellite Brightness Start Highest point End
(mag) Time Altitude Azimuth Time Altitude Azimuth Time Altitude Azimuth
Cosmos 1340 Rocket 4.3 20:44:08 10° SE 20:47:03 19° E 20:49:59 10° NE
Timation 2 Rocket 3.9 20:41:16 10° SSW 20:47:11 71° ESE 20:53:15 10° NNE
SJ-11-01 4.3 20:44:19 10° SSE 20:49:02 80° ENE 20:53:48 10° N
Spot 2 Rocket 3.5 20:46:45 10° SSE 20:51:44 69° ENE 20:56:45 10° N
Cosmos 468 Rocket 4.0 20:48:51 10° SSW 20:54:07 82° ESE 20:59:23 10° NNE
Cosmos 1937 Rocket 3.7 20:51:02 10° N 20:56:05 55° ENE 21:01:08 10° SE
Resurs 1-3 3.8 20:52:23 10° S 20:56:46 74° WSW 21:01:10 10° NNW
Cosmos 1763 Rocket 3.6 20:53:27 10° S 20:58:38 56° ESE 21:03:48 10° NNE
Cosmos 2298 Rocket 4.4 20:56:20 10° N 21:01:29 49° ENE 21:06:27 11° SE
Cosmos 1455 Rocket 3.9 20:59:37 10° NNE 21:03:34 32° ENE 21:07:12 12° SE
Cosmos 841 Rocket 3.9 21:00:12 10° S 21:05:08 44° ESE 21:10:09 10° NNE
BREEZE-M DEB (TANK) 2.9 21:07:22 10° WNW 21:09:57 26° SW 21:11:29 12° SSE
BREEZE-M DEB (TANK) 2.8 21:08:35 10° WNW 21:10:46 44° SSW 21:13:55 13° SE
Cosmos 2360 Rocket 2.9 21:07:21 10° N 21:12:39 40° ENE 21:17:11 14° SE
USA 234 3.2 21:06:53 10° NE 21:13:26 67° SE 21:19:56 10° SW
USA 32 4.4 21:09:12 10° N 21:14:14 46° E 21:18:51 12° SSE
Atlas Centaur 2 3.4 21:13:15 10° SW 21:14:24 11° SSW 21:15:30 10° S
Cosmos 1975 Rocket 3.0 21:10:22 10° S 21:14:42 87° W 21:19:02 10° N
Cosmos 1980 Rocket 4.1 21:10:25 10° NW 21:15:04 27° WSW 21:19:43 10° SSW
ERS-2 3.6 21:11:50 10° SSW 21:15:15 36° W 21:18:42 10° NNW
Cosmos 2219 Rocket 4.2 21:12:26 10° NNE 21:15:26 14° NE 21:18:25 10° E
Abrixas rocket 3.7 21:13:44 10° W 21:16:47 38° NNW 21:19:50 10° NE
Okean 1 Rocket 4.5 21:12:49 10° NNW 21:16:51 38° W 21:20:51 10° SSW
USA 186 4.4 21:15:32 10° SW 21:18:01 20° W 21:20:34 10° NW
Cosmos 1975 3.7 21:14:40 10° NNW 21:18:34 48° W 21:22:25 10° SSW
Cosmos 1666 3.3 21:15:06 10° NNW 21:18:54 56° W 21:22:41 10° S
Meteor 1-19 Rocket 4.4 21:14:52 10° S 21:20:47 88° W 21:26:44 10° N
NOSS 3-2 (C) 4.1 21:16:18 10° SW 21:22:09 60° NW 21:28:41 10° NNE
ISS -1.0 21:20:54 10° WNW 21:23:23 19° NNW 21:25:53 10° NNE
Cosmos 2084 4.3 21:20:33 10° SW 21:24:46 52° NW 21:28:47 10° NNE
Tiangong 2 1.4 21:21:43 10° W 21:24:51 65° N 21:28:00 10° E
Meteor 2-9 Rocket 4.1 21:22:13 10° N 21:27:35 77° E 21:32:34 13° SSE
Shenzhou-11 Module 1.8 21:24:51 10° WNW 21:27:50 75° SSW 21:29:32 23° ESE
MetOp-A 4.2 21:23:31 13° SSE 21:28:17 68° ENE 21:33:38 10° N
Cosmos 292 Rocket 3.7 21:24:50 10° S 21:29:33 70° ESE 21:34:18 10° NNE
Cosmos 1544 Rocket 3.6 21:26:43 10° N 21:31:09 67° E 21:34:35 16° SSE
ERS-1 Rocket 3.4 21:27:43 17° SE 21:31:20 46° ENE 21:36:08 10° N
ATLAS CENTAUR R/B 4.5 21:25:12 10° SW 21:31:46 81° NW 21:52:43 10° NE
Cosmos 1743 4.0 21:30:36 10° NNW 21:34:11 39° W 21:37:43 10° SSW
CENTAUR R/B 2.4 21:32:20 10° SSW 21:38:14 85° ESE 21:45:05 10° NE
Iridium 2 4.2 21:34:31 10° SSW 21:38:17 60° W 21:42:05 10° N
SJ 16-02 2.1 21:36:58 10° N 21:41:08 39° ENE 21:43:26 22° ESE
Cosmos 2333 Rocket 3.9 21:37:46 10° N 21:41:56 20° NE 21:45:41 11° E
Helios 1B rocket 3.7 21:38:58 10° NE 21:42:11 22° E 21:42:55 21° ESE
CZ-4C R/B 3.7 21:37:57 10° NNW 21:44:33 40° NE 21:50:37 15° ESE
Cosmos 1356 3.3 21:42:01 16° S 21:44:40 77° E 21:48:08 10° NNE
Meteor 1-23 Rocket 4.2 21:39:39 12° S 21:44:46 60° E 21:50:14 10° NNE
COSMOS 2428 3.8 21:40:13 10° N 21:45:15 31° ENE 21:48:38 18° ESE
Cosmos 1536 Rocket 3.6 21:44:47 17° S 21:48:06 64° E 21:52:32 10° NNE
SPOT 1/Viking Rocket 4.2 21:45:41 22° SE 21:48:36 41° ENE 21:53:26 10° N
Resurs 01 Rocket 3.9 21:47:59 10° SW 21:51:15 20° W 21:54:31 10° NW
H-2A R/B 1.9 21:48:25 19° SSE 21:51:59 90° SSE 21:57:05 10° NNW
Cosmos 1833 4.2 21:46:38 10° SSW 21:52:23 89° WNW 21:58:06 10° NNE
Meteor 2-4 Rocket 4.0 21:48:59 10° SSW 21:54:22 66° W 21:59:58 10° N
Cosmos 1125 Rocket 4.0 21:50:02 10° N 21:55:06 47° ENE 21:57:45 25° SE
SL-08 RB Rocket 3.7 21:52:38 21° S 21:55:41 82° W 22:00:17 10° NNW
Aureole 2 Rocket 3.0 21:57:03 10° NW 21:59:47 38° WSW 22:00:42 28° SSW
Nadezhda 4 Rocket 4.2 21:53:42 10° N 21:59:54 55° E 22:03:30 25° SSE
Lacrosse 5 rocket 1.3 21:56:20 10° NW 22:00:41 76° NE 22:02:25 33° SE
ARGOS 3.5 21:56:26 15° S 22:00:53 61° W 22:06:15 10° NNW
Cosmos 1515 3.8 22:00:43 18° SSW 22:03:27 75° W 22:07:18 10° N
Cosmos 2227 Rocket 4.1 22:05:57 12° E 22:05:57 12° E 22:07:35 10° ENE
Cosmos 2322 Rocket 3.6 22:02:31 10° NW 22:07:25 32° WSW 22:12:02 11° SSW
Cosmos 2322 3.7 22:02:12 10° NNW 22:07:58 81° ENE 22:10:59 29° SSE
Cosmos 836 Rocket 4.4 22:05:24 15° S 22:09:45 75° ESE 22:14:58 10° NNE
Cosmos 2237 Rocket 4.0 22:07:23 10° N 22:11:27 20° NE 22:14:39 13° E
DMSP B5D2-2 4.0 22:07:19 10° NNE 22:12:38 77° ESE 22:16:12 21° S
SL-16 R/B 4.0 22:12:58 10° NW 22:17:29 25° WSW 22:21:59 10° SSW
Cosmos 1066 Rocket 4.3 22:16:42 33° SSE 22:18:50 52° E 22:24:07 10° NNE
CARTOSAT-1 4.0 22:19:05 36° ESE 22:20:12 45° ENE 22:24:20 10° N
Landsat 7 3.9 22:18:59 37° SE 22:20:45 66° ENE 22:25:30 10° N
Cosmos 1025 Rocket 2.9 22:27:28 42° S 22:28:54 81° E 22:33:18 10° N
Cosmos 540 Rocket 4.1 22:24:17 10° SW 22:29:20 55° WNW 22:34:26 10° N
Cosmos 2034 Rocket 4.4 22:29:19 14° SSW 22:34:41 62° W 22:40:48 10° N
Cosmos 2219 3.2 22:34:42 35° S 22:36:57 60° ESE 22:42:37 10° NNE
Cosmos 1606 Rocket 4.0 22:34:22 10° N 22:38:37 44° ENE 22:39:09 42° E
SPOT 5 3.0 22:37:55 38° SSW 22:39:25 60° W 22:43:58 10° NNW
Terra 1.8 22:38:20 47° SE 22:39:32 67° ENE 22:44:16 10° N
Cosmos 1544 3.2 22:37:32 10° N 22:41:11 61° ENE 22:41:11 61° ENE
Meteor 1-22 Rocket 4.4 22:37:06 10° N 22:42:17 49° ENE 22:43:33 41° ESE
Spot 1 3.8 22:44:11 64° SSE 22:44:47 90° SSE 22:48:52 10° NNW
Cosmos 1766 4.0 22:42:45 10° N 22:46:27 40° ENE 22:46:27 40° ENE
Intercosmos 25 4.3 22:52:55 35° ENE 22:52:55 35° ENE 22:55:38 10° NNE
Helios 1A 4.1 22:51:27 30° SW 22:52:37 36° W 22:56:30 10° NNW
Cosmos 2195 Rocket 4.4 22:48:29 10° N 22:54:38 73° E 22:56:37 45° SSE
Cosmos 1627 Rocket 4.4 22:49:04 10° N 22:55:13 70° E 22:57:06 45° SSE
CZ-2C R/B 3.0 22:49:50 10° NNE 22:55:16 48° E 22:56:06 45° SE
DELTA 2 R/B (1) 4.4 22:50:02 10° SW 22:53:21 32° SSW 22:53:21 32° SSW
YAOGAN 11 4.0 22:55:17 65° SE 22:55:53 77° ENE 23:00:25 10° N
USA 234 4.5 22:50:06 10° NE 22:56:12 43° NNW 23:02:18 10° W
Cosmos 2360 Rocket 3.6 22:51:40 10° NW 22:56:27 29° WSW 22:58:58 21° SW
BREEZE M DEB (TANK) 4.2 22:53:36 10° WNW 22:58:16 21° WSW 22:58:39 21° SW
Cosmos 2219 Rocket 2.1 22:54:38 10° NNW 23:00:15 85° ENE 23:01:38 53° SSE
ISS -0.7 22:59:05 10° NNW 23:00:49 14° N 23:02:34 10° NE
Cosmos 1634 Rocket 3.9 22:58:16 39° S 23:00:49 87° E 23:07:11 10° N
Cosmos 2333 4.4 22:56:00 10° NNW 23:01:36 62° WSW 23:03:12 44° SSW
Tiangong 2 2.8 22:58:31 10° WNW 23:00:16 30° WNW 23:00:16 30° WNW
Mayak 1.3 23:00:14 10° ENE 23:00:23 10° ENE 23:00:23 10° ENE
Spot 4 4.2 23:09:03 48° E 23:09:34 51° ENE 23:14:16 10° N
COSMOS 2455 3.1 23:10:58 46° ESE 23:11:13 46° ESE 23:16:57 10° NE
Cosmos 1892 Rocket 3.4 23:14:31 84° ENE 23:14:31 84° ENE 23:18:48 10° N
Nimbus 7 Rocket 4.4 23:08:44 10° NNE 23:14:38 79° WNW 23:16:59 39° SSW
CZ-2C R/B 3.2 23:16:09 55° S 23:17:20 75° WSW 23:22:58 10° NNW
Helios 1B rocket 4.1 23:13:52 10° N 23:17:28 30° WNW 23:19:15 21° WSW
Cosmos 192 4.3 23:16:53 57° SW 23:17:51 77° WNW 23:22:47 10° NNE
SJ 16-02 3.4 23:16:21 10° NW 23:19:24 18° W 23:20:26 17° WSW
Cosmos 1842 3.7 23:20:57 55° NNE 23:20:57 55° NNE 23:24:07 10° NNE
Cosmos 1805 3.6 23:17:11 10° N 23:20:32 59° NNE 23:20:32 59° NNE
Cosmos 1538 Rocket 3.8 23:24:21 71° SE 23:24:43 75° ESE 23:29:58 10° NNE
Cosmos 2228 3.0 23:21:40 10° N 23:25:44 80° NNW 23:25:44 80° NNW
Cosmos 2333 Rocket 2.3 23:21:04 10° NNW 23:26:44 67° WSW 23:27:41 57° SSW
Cosmos 1470 4.5 23:23:38 10° NNE 23:26:07 24° NE 23:26:07 24° NE
SL-16 R/B 3.5 23:24:12 10° N 23:29:12 31° NE 23:30:55 26° E
COSMOS 2428 3.5 23:24:19 10° NW 23:29:33 39° WSW 23:30:38 35° SW
CZ-4C R/B 3.2 23:26:18 10° NW 23:33:29 56° WSW 23:35:47 43° SSW
Cosmos 1726 Rocket 4.0 23:29:34 10° NNW 23:33:53 54° W 23:33:53 54° W
Cosmos 1980 3.5 23:32:51 10° NNW 23:38:33 89° SW 23:39:12 71° SSE
Lacrosse 5 rocket 3.9 23:37:23 10° W 23:38:04 12° W 23:38:04 12° W
Cosmos 2180 Rocket 4.4 23:38:13 59° S 23:39:34 84° E 23:45:52 10° N
COBE Rocket 3.9 23:36:53 10° NNE 23:41:17 66° ENE 23:41:17 66° ENE
ERBS 4.3 23:41:51 10° NNW 23:44:10 27° NNE 23:44:10 27° NNE
Cosmos 2297 Rocket 2.0 23:44:25 73° S 23:44:53 81° ESE 23:50:35 10° NNE
Cosmos 1707 4.5 23:49:50 26° NE 23:49:50 26° NE 23:51:59 10° NNE
Cosmos 2227 Rocket 2.1 23:47:43 66° SW 23:48:33 85° WNW 23:54:15 10° NNE
Cosmos 1953 3.3 23:44:48 10° N 23:47:46 43° NNE 23:47:46 43° NNE
Cosmos 2058 Rocket 3.7 23:46:37 10° NNW 23:50:47 51° W 23:50:47 51° W
